This is the latest recevied weather packets stored in our database for station/object W6JCZ-13. If no packets are shown the sender has not sent any weather packets the latest 10 day(s).
| Time | Temp. | Humidity | Pressure | Rain* | Wind** | Luminosity | Snow |
|---|---|---|---|---|---|---|---|
| 1788543617 | 20° C | 68% | 1012.4 hPa | 0 mm | - | - | - |
| 1788543017 | 20.56° C | 67% | 1012.3 hPa | 0 mm | - | - | - |
| 1788542417 | 20.56° C | 68% | 1012.3 hPa | 0 mm | - | - | - |
| 1788541817 | 21.11° C | 65% | 1012.2 hPa | 0 mm | - | - | - |
| 1788541217 | 20.56° C | 67% | 1012 hPa | 0 mm | - | - | - |
| 1788540617 | 20° C | 68% | 1012 hPa | 0 mm | - | - | - |
| 1788540017 | 20.56° C | 66% | 1011.9 hPa | 0 mm | - | - | - |
| 1788539417 | 20.56° C | 65% | 1011.9 hPa | 0 mm | - | - | - |
| 1788538817 | 20.56° C | 66% | 1011.8 hPa | 0 mm | - | - | - |
| 1788538235 | 20° C | 65% | 1011.9 hPa | 0 mm | - | - | - |
| 1788537617 | 20° C | 67% | 1011.9 hPa | 0 mm | - | - | - |
| 1788537017 | 18.89° C | 66% | 1011.9 hPa | 0 mm | - | - | - |
| 1788536417 | 18.33° C | 71% | 1011.7 hPa | 0 mm | - | - | - |
| 1788535817 | 17.78° C | 70% | 1011.7 hPa | 0 mm | - | - | - |
| 1788535222 | 17.22° C | 75% | 1011.7 hPa | 0 mm | - | - | - |
| 1788534617 | 16.11° C | 78% | 1011.7 hPa | 0 mm | - | - | - |
| 1788534017 | 15° C | 80% | 1011.6 hPa | 0 mm | - | - | - |
| 1788533417 | 14.44° C | 85% | 1011.4 hPa | 0 mm | - | - | - |
| 1788532817 | 14.44° C | 88% | 1011.4 hPa | 0 mm | - | - | - |
| 1788532217 | 13.89° C | 89% | 1011.3 hPa | 0 mm | - | - | - |
| 1788531617 | 12.78° C | 90% | 1011.1 hPa | 0 mm | - | - | - |
| 1788531017 | 12.22° C | 89% | 1011 hPa | 0 mm | - | - | - |
| 1788530416 | 12.22° C | 89% | 1010.8 hPa | 0 mm | - | - | - |
| 1788529816 | 11.67° C | 89% | 1010.7 hPa | 0 mm | - | - | - |
| 1788529217 | 12.22° C | 88% | 1010.8 hPa | 0 mm | - | - | - |
* Rain latest hour (hover to see other rain measurements)
** Current wind speed in m/s (hover to see current wind gust speed)